Regional Weather Roundup
Issued by NWS

Home | Current Version | Previous Version | Text Only | Print | Product List | Glossary Off
Versions: 1 2 3 4 5 6 7 8 9 10 11 12 13 14 15 16 17 18 19 20 21 22 23 24 25 26 27 28 29 30 31 32 33 34 35 36 37 38 39 40 41 42 43 44 45 46 47 48 49 50

000
ASUS43 KBIS 161710
RWRND

NORTH DAKOTA REGIONAL WEATHER ROUNDUP
NATIONAL WEATHER SERVICE BISMARCK ND
1200 PM CDT MON OCT 16 2017

NOTE: "FAIR" INDICATES FEW OR NO CLOUDS BELOW 12,000 FEET WITH NO
SIGNIFICANT WEATHER AND/OR OBSTRUCTIONS TO VISIBILITY.


NDZ001>003-009>011-017-161800-
NORTHWEST NORTH DAKOTA

CITY           SKY/WX    TMP DP  RH WIND       PRES   REMARKS
WILLISTON      SUNNY     59  36  42 W21G31    29.93F
MINOT          SUNNY     62  35  36 W17G29    29.88S
MINOT AFB      SUNNY     61  35  38 W17G25    29.86S
$$

NDZ018>021-031>035-040>046-161800-
SOUTHWEST NORTH DAKOTA

CITY           SKY/WX    TMP DP  RH WIND       PRES   REMARKS
BISMARCK       SUNNY     65  34  31 W13       29.97F
DICKINSON      SUNNY     61  32  33 W17       29.99S
GARRISON         N/A     61  35  37 W22       29.93S
HETTINGER ARPT CLOUDY    60  31  33 W16       30.06S
$$

NDZ004>008-012>016-024-026-027-054-161800-
NORTHEAST NORTH DAKOTA

CITY           SKY/WX    TMP DP  RH WIND       PRES   REMARKS
GRAND FORKS    MOSUNNY   63  36  36 SW17G29   29.88F
GRND FRKS AFB  SUNNY     63  33  33 SW23      29.88F
DEVILS LAKE    SUNNY     58  35  42 W21       29.88F
$$

NDZ022-023-025-028>030-036>039-047>053-161800-
SOUTHEAST NORTH DAKOTA

CITY           SKY/WX    TMP DP  RH WIND       PRES   REMARKS
FARGO          SUNNY     58  39  49 S17       29.99F
JAMESTOWN      SUNNY     64  33  31 SW20G31   29.94F
$$





USA.gov is the U.S. government's official web portal to all federal, state and local government web resources and services.